{"data":{"norad_id":46059,"epoch":"2026-09-20T01:27:26.252064Z","epoch_age_seconds":56197,"freshness":"FRESH","line1":"1 46059U 20055AJ  26263.06072051  .00003196  00000+0  11469-3 0  9998","line2":"2 46059  53.1580 289.3459 0001166  82.2328 277.8806 15.31704450338818","mean_motion":15.3170445,"eccentricity":0.0001166,"inclination_deg":53.158,"raan_deg":289.3459,"arg_perigee_deg":82.2328,"mean_anomaly_deg":277.8806,"bstar":0.00011469,"rev_number":33881,"period_min":94.012914828314,"perigee_km":469.9281525284,"apogee_km":471.52530755024,"semimajor_km":6848.8637300393,"source":"CELESTRAK","updated_at":"2026-09-20T09:00:38.463204Z"}}